FW6725 Weather Reports


Display with metric or nautical units.
time (UTC)temp
F
wind
direction
speed
MPH
gust
MPH
rain 1hr
in
rain 24hr
in
rain mn
in
humidity
%
barometer
mb
20260510030541 40 98 5.0 7.0 0.00 0.00 0.00 67 1020.0
20260510025541 39 99 6.0 7.0 0.00 0.00 0.00 67 1020.1
20260510024540 39 97 6.0 7.0 0.00 0.00 0.00 66 1020.2
20260510023539 39 99 6.0 7.0 0.00 0.00 0.00 65 1020.2
20260510022558 39 97 6.0 8.0 0.00 0.00 0.00 64 1020.3
20260510021557 39 96 6.0 8.0 0.00 0.00 0.00 64 1020.5
20260510020556 39 93 7.0 9.0 0.00 0.00 0.00 64 1020.5
20260510015535 39 92 6.0 8.0 0.00 0.00 0.00 63 1020.7
20260510014534 39 92 7.0 9.0 0.00 0.00 0.00 63 1020.7
20260510013533 39 92 7.0 9.0 0.00 0.00 0.00 63 1020.7
20260510012532 40 93 7.0 9.0 0.00 0.00 0.00 63 1020.8
20260510011611 40 90 7.0 9.0 0.00 0.00 0.00 63 1020.9
20260510010530 40 91 7.0 9.0 0.00 0.00 0.00 62 1021.0
20260510005529 40 92 7.0 9.0 0.00 0.00 0.00 61 1021.1
20260510004528 41 94 7.0 8.0 0.00 0.00 0.00 60 1021.3
20260510003527 41 96 7.0 9.0 0.00 0.00 0.00 60 1021.3
20260510002546 41 95 7.0 9.0 0.00 0.00 0.00 59 1021.4
20260510001545 40 94 7.0 9.0 0.00 0.00 0.00 59 1021.5
20260510000544 41 96 7.0 9.0 0.00 0.00 0.00 54 1021.5
20260509235523 41 96 7.0 9.0 0.00 0.00 0.00 52 1021.6
20260509234602 41 96 7.0 9.0 0.00 0.00 0.00 50 1021.7
20260509233521 41 96 7.0 9.0 0.00 0.00 0.00 48 1021.8
20260509232520 42 98 7.0 9.0 0.00 0.00 0.00 46 1022.0
20260509231600 42 96 7.0 9.0 0.00 0.00 0.00 46 1022.1
20260509230518 42 98 7.0 9.0 0.00 0.00 0.00 45 1022.3
20260509225517 42 97 7.0 9.0 0.00 0.00 0.00 45 1022.3
20260509224546 42 99 7.0 8.0 0.00 0.00 0.00 45 1022.4
20260509223545 43 101 7.0 9.0 0.00 0.00 0.00 42 1022.4
20260509222544 43 101 6.0 9.0 0.00 0.00 0.00 41 1022.5
20260509221543 43 104 6.0 8.0 0.00 0.00 0.00 41 1022.7
20260509220603 43 102 6.0 9.0 0.00 0.00 0.00 41 1022.7
20260509215601 42 102 6.0 8.0 0.00 0.00 0.00 42 1022.8
20260509214540 43 99 6.0 7.0 0.00 0.00 0.00 41 1022.8
20260509213539 43 103 5.0 6.0 0.00 0.00 0.00 41 1022.9
20260509212538 43 103 5.0 7.0 0.00 0.00 0.00 41 1023.0
20260509211537 44 108 4.0 6.0 0.00 0.00 0.00 40 1023.1
20260509210536 44 106 5.0 8.0 0.00 0.00 0.00 39 1023.1
20260509205535 45 104 6.0 8.0 0.00 0.00 0.00 39 1023.0
20260509204535 45 100 6.0 9.0 0.00 0.00 0.00 38 1023.0
20260509203533 45 99 5.0 8.0 0.00 0.00 0.00 38 1023.1
20260509202533 45 103 6.0 9.0 0.00 0.00 0.00 36 1023.2
20260509201532 46 104 6.0 9.0 0.00 0.00 0.00 35 1023.1
20260509200531 46 104 5.0 7.0 0.00 0.00 0.00 36 1023.3
20260509195530 47 107 5.0 9.0 0.00 0.00 0.00 35 1023.3
20260509194529 47 105 6.0 9.0 0.00 0.00 0.00 34 1023.3
20260509193548 47 107 4.0 7.0 0.00 0.00 0.00 35 1023.4
20260509192527 47 99 4.0 6.0 0.00 0.00 0.00 35 1023.4
20260509191526 48 86 4.0 6.0 0.00 0.00 0.00 33 1023.6
20260509190525 48 96 5.0 8.0 0.00 0.00 0.00 32 1023.6
20260509185524 50 103 7.0 10.0 0.00 0.00 0.00 30 1023.6
20260509184523 49 99 6.0 10.0 0.00 0.00 0.00 31 1023.6
20260509183522 50 105 6.0 10.0 0.00 0.00 0.00 30 1023.6
20260509182521 51 111 8.0 16.0 0.00 0.00 0.00 28 1023.6
20260509181520 51 108 10.0 16.0 0.00 0.00 0.00 27 1023.6
20260509180519 52 105 10.0 18.0 0.00 0.00 0.00 27 1023.7
20260509175518 52 107 10.0 18.0 0.00 0.00 0.00 27 1023.7
20260509174517 52 103 9.0 16.0 0.00 0.00 0.00 27 1023.8
20260509173537 53 103 10.0 16.0 0.00 0.00 0.00 27 1023.9
20260509172605 53 102 11.0 16.0 0.00 0.00 0.00 27 1024.0
20260509171605 53 107 11.0 18.0 0.00 0.00 0.00 27 1024.0
20260509170543 53 111 11.0 19.0 0.00 0.00 0.00 27 1024.2
20260509165543 53 113 10.0 19.0 0.00 0.00 0.00 27 1024.2
20260509164542 53 105 11.0 17.0 0.00 0.00 0.00 27 1024.3
20260509163600 54 110 12.0 17.0 0.00 0.00 0.00 27 1024.4
20260509162540 53 116 12.0 18.0 0.00 0.00 0.00 27 1024.5
20260509161559 54 106 10.0 18.0 0.00 0.00 0.00 26 1024.5
20260509160537 54 106 10.0 15.0 0.00 0.00 0.00 25 1024.6
20260509155536 54 114 9.0 15.0 0.00 0.00 0.00 24 1024.7
20260509154536 54 111 10.0 15.0 0.00 0.00 0.00 24 1024.9
20260509153555 55 113 10.0 20.0 0.00 0.00 0.00 23 1025.0
20260509152553 54 112 11.0 20.0 0.00 0.00 0.00 23 1025.0
20260509151533 54 113 11.0 20.0 0.00 0.00 0.00 22 1025.1
20260509150532 54 103 11.0 17.0 0.00 0.00 0.00 22 1025.1
20260509145531 54 104 12.0 19.0 0.00 0.00 0.00 22 1025.4
20260509144530 55 109 12.0 19.0 0.00 0.00 0.00 21 1025.5
20260509143529 55 100 11.0 19.0 0.00 0.00 0.00 22 1025.6
20260509142527 55 114 12.0 19.0 0.00 0.00 0.00 22 1025.7
20260509141527 55 113 11.0 17.0 0.00 0.00 0.00 22 1025.8
20260509140526 55 110 10.0 17.0 0.00 0.00 0.00 21 1025.9
20260509135525 55 106 9.0 17.0 0.00 0.00 0.00 21 1026.0
20260509134524 54 115 10.0 17.0 0.00 0.00 0.00 21 1026.1
20260509133523 55 119 10.0 18.0 0.00 0.00 0.00 21 1026.2
20260509132522 55 117 11.0 19.0 0.00 0.00 0.00 21 1026.2
20260509131521 55 119 11.0 19.0 0.00 0.00 0.00 21 1026.3
20260509130520 55 120 10.0 17.0 0.00 0.00 0.00 22 1026.4
20260509125519 55 125 10.0 19.0 0.00 0.00 0.00 22 1026.5
20260509124518 55 116 11.0 18.0 0.00 0.00 0.00 22 1026.5
20260509123517 55 111 10.0 16.0 0.00 0.00 0.00 21 1026.7
20260509122516 55 117 11.0 18.0 0.00 0.00 0.00 22 1026.7
20260509121545 55 120 11.0 18.0 0.00 0.00 0.00 21 1026.8
20260509120544 55 126 9.0 16.0 0.00 0.00 0.00 21 1026.9
20260509115543 56 123 10.0 16.0 0.00 0.00 0.00 21 1027.0
20260509114542 56 117 10.0 16.0 0.00 0.00 0.00 22 1027.1
20260509113542 56 112 9.0 16.0 0.00 0.00 0.00 22 1027.1
20260509112542 56 111 10.0 17.0 0.00 0.00 0.00 21 1027.1
20260509111540 56 104 11.0 21.0 0.00 0.00 0.00 21 1027.2
20260509110540 56 101 11.0 20.0 0.00 0.00 0.00 20 1027.3
20260509105539 57 93 11.0 19.0 0.00 0.00 0.00 20 1027.4
20260509104538 55 111 11.0 17.0 0.00 0.00 0.00 20 1027.5
20260509103537 56 92 10.0 17.0 0.00 0.00 0.00 22 1027.6
20260509102536 55 111 10.0 16.0 0.00 0.00 0.00 22 1027.6
20260509101615 56 98 11.0 17.0 0.00 0.00 0.00 22 1027.7
20260509100554 56 96 10.0 18.0 0.00 0.00 0.00 23 1027.7
20260509095533 56 97 10.0 18.0 0.00 0.00 0.00 24 1027.8
20260509094552 56 97 9.0 17.0 0.00 0.00 0.00 23 1027.9
20260509093551 54 116 8.0 15.0 0.00 0.00 0.00 25 1028.0
20260509092550 54 99 10.0 16.0 0.00 0.00 0.00 25 1028.1
20260509091529 54 123 8.0 16.0 0.00 0.00 0.00 26 1028.1
20260509090528 54 106 7.0 11.0 0.00 0.00 0.00 26 1028.3
20260509085527 54 112 8.0 14.0 0.00 0.00 0.00 27 1028.4
20260509084526 53 113 6.0 11.0 0.00 0.00 0.00 27 1028.4
20260509083525 53 145 7.0 14.0 0.00 0.00 0.00 29 1028.5
20260509082524 52 154 7.0 14.0 0.00 0.00 0.00 29 1028.5
20260509081523 52 128 7.0 12.0 0.00 0.00 0.00 30 1028.6
20260509080522 52 138 6.0 12.0 0.00 0.00 0.00 32 1028.7
20260509075602 52 132 7.0 13.0 0.00 0.00 0.00 30 1028.7
20260509074520 52 110 8.0 14.0 0.00 0.00 0.00 31 1028.8
20260509073520 52 105 9.0 14.0 0.00 0.00 0.00 31 1028.7
20260509072518 52 114 9.0 16.0 0.00 0.00 0.00 33 1028.7
20260509071538 52 121 6.0 13.0 0.00 0.00 0.00 34 1028.7
20260509070546 52 123 6.0 10.0 0.00 0.00 0.00 35 1028.7
20260509065605 51 127 7.0 11.0 0.00 0.00 0.00 36 1028.8
20260509064529 51 95 5.0 10.0 0.00 0.00 0.00 38 1028.9
20260509063044 51 81 5.0 8.0 0.00 0.00 0.00 40 1028.9
20260509062102 50 112 4.0 6.0 0.00 0.00 0.00 41 1028.9
20260509061101 50 97 4.0 6.0 0.00 0.00 0.00 42 1028.9
20260509060039 50 88 4.0 7.0 0.00 0.00 0.00 43 1028.9
20260509055038 49 76 4.0 6.0 0.00 0.00 0.00 43 1028.8
20260509054036 49 91 5.0 7.0 0.00 0.00 0.00 43 1028.8
20260509053035 49 85 5.0 7.0 0.00 0.00 0.00 43 1028.8
20260509052035 48 91 5.0 7.0 0.00 0.00 0.00 44 1028.8
20260509051033 48 93 4.0 6.0 0.00 0.00 0.00 44 1028.8
20260509050032 47 87 4.0 6.0 0.00 0.00 0.00 46 1028.8
20260509045032 46 91 4.0 6.0 0.00 0.00 0.00 47 1028.8
20260509044031 47 85 4.0 6.0 0.00 0.00 0.00 46 1028.7
20260509043030 47 81 4.0 6.0 0.00 0.00 0.00 44 1028.7
20260509042031 47 76 5.0 7.0 0.00 0.00 0.00 43 1028.7
20260509041029 46 75 4.0 8.0 0.00 0.00 0.00 44 1028.6
20260509040028 45 71 5.0 8.0 0.00 0.00 0.00 45 1028.6
20260509034047 45 72 3.0 5.0 0.00 0.00 0.00 47 1028.5
20260509033025 42 63 3.0 4.0 0.00 0.00 0.00 54 1028.5
20260509032024 45 65 3.0 4.0 0.00 0.00 0.00 45 1028.4
20260509031022 45 72 3.0 4.0 0.00 0.00 0.00 43 1028.4